Location: An Tulaigh
(53.1928°N, 8.1647°W)
Time: 03:36:42
(UTC+00:00)

Cosmos 1766 - Pass Details

Date: 15 May 2026
Orbit: 397 x 405 km, 82.5° (Epoch: 8 June)

Event Time Altitude Azimuth Distance (km) Brightness Sun altitude
Rises 23:23:32 0° 341° (NNW) 2,367 8.4 -16.4°
Reaches altitude 10° 23:25:43 10° 331° (NNW) 1,498 6.8 -16.5°
Maximum altitude 23:28:37 31° 267° (W) 764 4.1 -16.6°
Enters shadow 23:29:47 23° 228° (SW) 921 4.2 -16.6°
